sat.trackr.live / text

‹ back to catalog

STARLINK-31484

NORAD 59005 · 2024-036H

PAYLOAD ACTIVE UNKNOWN

§ Identity

Operator
Country
US
Launch date
2024-02-23
Launch site
AFWTR
Launch vehicle
Mass (kg)
RCS (m²)

Purposes: comms

External: N2YO · Heavens-Above · Gunter

§ Orbital elements

Epoch: 2026-09-20T22:48:23.866272Z

Period
93.85 min
Inclination
53.1606°
Eccentricity
0.0001615
Mean motion
15.34391768 rev/d
Perigee alt
461.6 km
Apogee alt
463.8 km
Semi-major
6,840.9 km
B*
-3.6853e-5
RAAN
249.3800°
Arg perigee
110.2432°
Mean anomaly
249.8744°
Rev number
14,524

§ Raw data

STARLINK-314841 59005U 24036H   26263.95027623 -.00001621  00000+0 -36853-4 0  99972 59005  53.1606 249.3800 0001615 110.2432 249.8744 15.34391768145245

JSON: /api/v1/satellites/59005 · /tle

For live sub-satellite position, see the globe view (requires WebGL).

§ Visibility from observer

Set your observer location to see the next 7 days of passes ≥ 10°. The values pass through the URL so the page stays shareable.

No JS? Fill the form by hand. The geolocation button needs JavaScript.